www.pogodaiklimat.ru

Погода и климат >> Архив погоды >> Саудовская Аравия >> Makkah


АРХИВ ПОГОДЫ в Makkah

Время (UTC), дата Ветер
(напр.,м/с)
 
Видим.   Явления Облачность Т
(С)
Тd
(С)
f
(%)
Тe
(С)
Тes
(С)
Комфортность P
(гПа)
Po
(гПа)
Тmin
(С)
Tmax
(С)
R
(мм)
R24
(мм)
S
(см)
18 19.06 Ю 1 10 км ясно +36.2 +20.0 39 +42 +42 опасность
перегрева
1003.0 977.0 +42.0
21 19.06 штиль 0 10 км ясно +35.2 +21.0 44 +42 +42 опасность
перегрева
1002.8 977.0
00 20.06 штиль 0 10 км ясно +34.0 +21.0 47 +41 +41 опасность
перегрева
1001.8 976.0
03 20.06 штиль 0 10 км 4/0
[Ac trans]
+33.0 +21.0 49 +40 +40 очень
душно
1003.1 977.1
06 20.06 Ю 2 10 км 3/0
[Ac trans]
+34.2 +22.0 49 +43 +52 опасность
перегрева
1005.1 979.0 +29.8
09 20.06 Ю 3 10 км ясно +38.2 +24.0 44 +49 +69 опасность
перегрева
1004.9 979.0
12 20.06 Ю 2 10 км ясно +41.4 +18.0 26 +45 +59 опасность
перегрева
1003.0 977.2
15 20.06 ЮЗ 2 10 км 4/0
[Ac trans]
+40.7 +20.0 30 +46 +46 опасность
перегрева
1002.1 976.2
18 20.06 штиль 0 10 км 1/0
[Ac trans]
+37.0 +15.0 27 +38 +38 душно 1002.4 976.4 +42.4
21 20.06 штиль 0 10 км ясно +34.4 +15.0 31 +36 +36 душно 1001.9 976.0
00 21.06 штиль 0 10 км ясно +31.6 +16.0 39 +34 +34 душно 1001.5 975.6
03 21.06 штиль 0 10 км 3/0
[Ac trans]
+30.6 +16.0 41 +33 +34 душно 1001.1 975.2
06 21.06 штиль 0 10 км ясно +35.6 +18.0 35 +39 +54 опасность
солнечного
удара
1002.2 976.3 +30.2
09 21.06 З 2 10 км ясно +42.2 +19.0 26 +46 +68 опасность
перегрева
1001.3 975.6
12 21.06 СЗ 2 10 км ясно +43.8 +22.0 29 +51 +65 опасность
перегрева
999.4 973.7
15 21.06 СЗ 2 10 км ясно +40.4 +20.0 31 +46 +47 опасность
перегрева
999.9 974.0
18 21.06 СЗ 1 10 км ясно +37.0 +20.0 37 +43 +43 опасность
перегрева
1001.5 975.6 +46.0
21 21.06 СЗ 1 10 км 3/0
[Ac trans]
+35.9 +20.0 40 +42 +42 опасность
перегрева
1001.6 975.9
00 22.06 С 2 10 км 3/0
[Ac trans]
+34.4 +19.0 40 +39 +39 очень
душно
1000.1 974.5
03 22.06 штиль 0 10 км ясно +33.4 +19.0 43 +39 +39 очень
душно
1000.6 974.8
06 22.06 штиль 0 10 км ясно +35.8 +21.0 42 +43 +57 опасность
перегрева
1002.1 976.2 +32.0
09 22.06 Ю 2 10 км ясно +42.4 +19.0 26 +46 +68 опасность
перегрева
1001.9 976.2
12 22.06 штиль 0 10 км ясно +46.6 +18.0 20 +50 +69 опасность
перегрева
999.9 974.4
15 22.06 З 1 10 км 5/0
[Ac trans]
+42.8 +22.0 31 +50 +51 опасность
перегрева
1000.9 975.2
18 22.06 С 1 8000 м пыль 4/0
[Ci fib]
+39.8 +15.0 23 +41 +41 опасность
перегрева
1001.9 976.1 +47.6
21 22.06 С 1 10 км 4/0
[Ac trans]
+38.2 +17.0 29 +41 +41 опасность
перегрева
1002.0 976.4
00 23.06 штиль 0 10 км 4/0
[Ac trans]
+36.6 +20.0 38 +42 +42 опасность
перегрева
1001.0 975.5
03 23.06 СЗ 1 10 км 5/3 1200 м
[Sc diur, vesp Ac trans]
+34.8 +19.0 39 +40 +40 очень
душно
1001.5 975.8
06 23.06 С 2 10 км 4/0
[Ac trans]
+36.7 +22.0 43 +45 +53 опасность
перегрева
1002.1 976.4 +34.5
09 23.06 СЗ 3 10 км ясно +42.7 +20.0 27 +47 +67 опасность
перегрева
1001.8 976.2
12 23.06 СВ 2 10 км ясно +44.2 +17.0 21 +46 +61 опасность
перегрева
1000.5 975.0
15 23.06 СЗ 3 10 км 4/4 1200 м
[Sc]
+40.2 +17.0 26 +43 +43 опасность
перегрева
1001.4 975.6
18 23.06 З 2 10 км 1/0
[Ac trans]
+35.0 +16.0 32 +37 +37 очень
душно
1003.2 977.2 +45.4
21 23.06 штиль 0 10 км 3/0
[Ac trans]
+33.4 +16.0 35 +36 +36 очень
душно
1002.7 976.9
00 24.06 штиль 0 10 км 1/0
[Ac trans]
+31.4 +18.0 45 +36 +36 очень
душно
1001.4 975.6
03 24.06 штиль 0 10 км 3/0
[Ac lent]
+29.8 +19.0 52 +35 +35 очень
душно
1002.0 976.0
06 24.06 штиль 0 10 км 3/0
[Ac trans]
+34.0 +20.0 44 +40 +52 опасность
солнечного
удара
1003.7 977.6 +29.6
09 24.06 ЮЗ 1 10 км ясно +40.2 +17.0 26 +43 +68 опасность
перегрева
1003.5 977.6
12 24.06 СЗ 2 10 км ясно +42.7 +17.0 23 +45 +59 опасность
перегрева
1002.0 976.2
15 24.06 СЗ 4 10 км 4/0
[Ci fib]
+39.3 +17.0 27 +42 +42 опасность
перегрева
1002.8 976.7
18 24.06 штиль 0 10 км ясно +35.2 +15.0 30 +37 +37 очень
душно
1004.2 978.1 +44.0
21 24.06 штиль 0 10 км ясно +33.0 +17.0 38 +36 +36 очень
душно
1003.1 977.2
00 25.06 штиль 0 10 км ясно +30.8 +16.0 41 +34 +34 очень
душно
1001.7 975.8
03 25.06 штиль 0 10 км ясно +28.9 +17.0 49 +33 +33 очень
душно
1003.0 976.9
06 25.06 штиль 0 10 км ясно +34.5 +12.0 26 +35 +49 очень
жарко
1004.2 978.1 +28.0
09 25.06 ЮЗ 3 10 км ясно +39.9 +12.0 19 +39 +59 опасность
солнечного
удара
1004.1 978.2
12 25.06 СЗ 2 10 км ясно +43.2 +18.0 24 +47 +61 опасность
перегрева
1001.8 976.0
15 25.06 СЗ 2 10 км ясно +40.4 +18.0 27 +43 +45 опасность
перегрева
1001.8 975.8
18 25.06 штиль 0 10 км ясно +34.8 +18.0 37 +39 +39 очень
душно
1003.6 977.5 +44.0
21 25.06 штиль 0 10 км 3/0
[Ac trans]
+33.2 +18.0 41 +38 +38 очень
душно
1002.9 977.0
00 26.06 штиль 0 10 км 4/4 1200 м
[Sc diur, vesp]
+32.0 +15.0 36 +34 +34 душно 1001.5 975.7
03 26.06 штиль 0 10 км 4/0
[Ac trans Ci fib]
+30.8 +15.0 38 +33 +33 душно 1002.0 976.0
06 26.06 штиль 0 10 км 3/0
[Ci fib]
+35.0 +16.0 32 +37 +51 опасность
солнечного
удара
1002.5 976.5 +26.8
09 26.06 ЮЗ 2 10 км ясно +40.8 +18.0 27 +44 +66 опасность
перегрева
1002.0 976.2
12 26.06 СЗ 3 10 км ясно +43.4 +19.0 25 +47 +60 опасность
перегрева
1000.1 974.4

 

Местоположение метеостанции Makkah (Саудовская Аравия): широта 21.43 долгота 39.77 высота над уровнем моря 240 м.

В архиве по умолчанию представлена погода в Makkah за последнюю неделю. Архивные данные за месяц целиком и за предыдущие месяцы, начиная с января 2011 года, Вы можете получить, выбрав интересующий диапазон дат из раскрывающегося списка и нажав кнопку "Ввод!".

Внимание! Время в таблицах - всемирное. Для получения местного времени необходимо прибавить поправку, которая в Makkah равна 3 ч.

Смотрите также архив погоды в соседних городах и на ближайших метеорологических станциях:

Погода в Mina (Саудовская Аравия) (10 км)
Погода в Arafat (Саудовская Аравия) (24 км)
Погода в Jeddah King Abdul Aziz (Саудовская Аравия) (68 км)
Погода в Al Taif (Саудовская Аравия) (81 км)
Погода в Al Baha (Саудовская Аравия) (232 км)
Погода в Port Sudan (Судан) (336 км)
Погода в Bisha (Саудовская Аравия) (338 км)
Погода в Madinah (Саудовская Аравия) (347 км)
Погода в Yanbu (Саудовская Аравия) (347 км)
Погода в Abha (Саудовская Аравия) (466 км)

Пояснения к столбцам:

Ветер - указаны скорость ветра в м/с - средняя за 10 мин, порывы в срок и между сроками (в фигурных скобках) и направление, откуда дует ветер: С - северный, СВ - северо-восточный, В - восточный, ЮВ - юго-восточный, Ю - южный, ЮЗ - юго-западный, З - западный, СЗ - северо-западный.
Видимость - горизонтальная дальность видимости в метрах или километрах. При видимости от 1 до 10 км при отсутствии осадков обычно наблюдается дымка, при ухудшении видимости до 1 км и менее - туман. В сухую погоду видимость может ухудшаться дымом, пылью или мглою.
Явления - указаны атмосферные явления, наблюдавшиеся в срок или в последний час перед сроком; фигурными скобками обозначены явления, наблюдавшиеся между сроками (за 1-3 часа до срока); квадратными скобками обозначены град или гололедные отложения с указанием их диаметра в мм.
Облачность - указаны через наклонную черту общая и нижняя облачность в баллах и высота нижней границы облаков в метрах; квадратными скобками обозначены формы облаков: Ci - перистые, Cs - перисто-слоистые, Cc - перисто-кучевые, Ac - высококучевые, As - высокослоистые, Sc - слоисто-кучевые, Ns - слоисто-дождевые, Cu - кучевые, Cb - кучево-дождевые. Подробнее классификацию облаков см. в Атласе облаков (PDF).
T - Температура воздуха - температура, измеренная на высоте 2 м над землей.
Td - Температура точки росы - температура, при понижении до которой содержащийся в воздухе водяной пар достигнет насыщения.
f - Относительная влажность воздуха - влажноcть воздуха, измеренная на высоте 2 м над землей.
Te - Эффективная температура - температура, которую ощущает одетый по сезону человек в тени. Характеристика душности погоды. При расчете учитывается влияние влажности воздуха и скорости ветра на теплоощущения человека.
Tes - Эффективная температура на солнце - температура, которую ощущает человек, с поправкой на солнечный нагрев. Характеристика знойности погоды. Зависит от высоты солнца над горизонтом, облачности и скорости ветра. Ночью, в пасмурную погоду, а также при ветре 12 м/с и более поправка равна нулю.
P - Атмосферное давление - приведенное к уровню моря атмосферное давление.
Po - Атмосферное давление - измеренное на уровне метеостанции атмосферное давление.
Tmin - Минимальная температура - минимум температуры воздуха на высоте 2 м над землей.
Tmax - Максимальная температура - максимум температуры воздуха на высоте 2 м над землей.
R - Количество осадков - Количество выпавших осадков за период времени, мм. При наведении курсора мыши на число - период времени, за который выпало указанное количество осадков.
R24 - Количество осадков - Количество выпавших осадков за 24 часа, мм.
S - Снежный покров - Высота снежного покрова, см. При наведении курсора мыши на число - состояние снежного покрова и степень покрытия местности в баллах.